Lapse_Rate
4.2 4.3 4.3 4.1 3.5 3.3 3.1 3.4 3.7 5.0 5.9 6.3 6.5 7.2 5.7 4.5 4.2 4.2 3.9 5.0 5.6 6.0 5.8 5.4 5.2 4.8 4.6 4.5 4.3 4.3 4.2 4.3 4.0 3.9 3.6 3.5 3.4 3.4 3.6 3.6 3.6 3.8 3.8
5.0 4.3 4.8 4.6 4.1 4.0 4.1 4.5 4.6 4.8 5.5 5.8 5.7 6.7 5.2 4.6 4.2 4.0 3.7 5.0 5.2 5.3 5.5 5.6 5.4 5.1 4.9 4.7 4.6 4.6 4.5 4.5 4.4 4.3 4.2 4.0 4.1 4.2 4.2 4.1 4.2 4.0 3.9
5.2 4.8 5.3 5.0 5.0 4.9 5.2 5.5 5.7 5.9 5.0 6.3 5.8 6.5 6.0 4.6 4.3 4.1 3.8 4.0 4.8 5.1 5.2 5.4 5.5 5.4 5.3 5.0 5.0 4.9 5.0 4.8 4.6 4.8 4.7 4.6 4.5 4.5 4.3 4.3 4.3 4.0 4.2
5.3 5.1 5.4 5.4 5.6 5.8 6.1 5.8 6.1 5.8 5.1 5.2 4.7 5.1 5.9 5.3 4.7 4.4 4.5 4.1 4.1 4.3 5.0 5.4 5.5 5.4 5.5 5.4 5.3 5.3 5.2 5.1 5.0 5.1 4.9 4.7 4.6 4.6 4.5 4.3 4.3 4.5 4.5
5.7 5.3 5.2 5.1 6.0 5.7 5.6 6.4 5.7 5.7 5.1 4.7 5.0 4.8 4.5 5.0 5.2 5.2 4.9 4.5 4.3 4.5 4.4 5.2 5.5 5.4 5.4 5.8 6.0 5.5 5.7 5.4 5.5 5.4 5.2 4.9 4.9 4.7 4.7 4.8 4.8 4.9 4.9
5.7 5.2 5.4 4.7 5.2 5.0 4.9 6.0 6.2 4.9 5.3 5.5 7.8 6.2 4.4 4.2 5.3 5.0 5.3 5.0 4.7 4.8 4.9 5.0 5.0 5.2 5.6 5.7 5.7 5.9 6.0 5.7 5.6 5.5 5.4 5.2 5.1 5.0 5.1 5.0 4.9 5.0 5.2
5.9 6.3 5.8 5.4 4.9 4.6 6.1 6.6 5.2 5.3 4.6 4.4 4.3 3.9 4.3 4.1 4.2 4.1 4.9 5.5 5.5 5.2 5.0 4.9 4.6 4.8 5.0 5.6 5.9 6.3 6.5 6.4 6.1 5.7 5.6 5.4 5.3 5.2 5.1 5.0 5.2 5.6 5.9
6.6 5.6 5.5 4.9 5.3 4.8 4.9 5.0 5.2 5.1 5.2 4.1 5.0 4.2 4.8 4.8 3.8 3.8 3.2 4.0 4.6 5.9 5.5 5.2 4.7 4.7 4.7 4.6 5.0 5.5 6.0 6.7 7.0 6.4 5.7 5.5 5.3 5.4 5.5 5.5 5.6 6.0 6.1
7.0 6.4 6.3 5.2 5.3 5.7 5.9 4.8 4.7 5.6 5.4 5.0 4.6 4.0 3.7 4.2 3.5 3.4 3.4 3.0 3.6 3.3 5.1 5.7 5.2 4.4 4.3 4.3 4.4 4.4 5.1 5.8 6.2 6.8 6.7 5.8 5.5 5.3 5.6 6.2 6.2 6.0 6.2
6.5 6.1 7.0 6.7 6.0 5.0 4.1 4.4 5.2 5.1 5.2 5.1 3.6 4.4 3.8 3.1 4.0 4.5 3.7 3.1 3.1 4.1 3.3 4.0 5.3 5.2 4.9 4.3 3.6 3.3 3.0 3.6 5.0 5.6 6.6 7.0 6.2 6.1 6.0 6.4 6.6 6.4 6.8
5.7 5.7 5.2 5.0 3.8 3.4 3.7 4.5 4.7 6.0 4.3 3.9 4.0 3.6 3.1 3.0 3.8 3.7 3.6 3.1 4.0 3.2 3.4 4.3 4.7 4.7 5.1 4.5 4.4 4.2 3.7 3.6 4.2 4.7 5.7 6.6 7.1 6.8 6.7 6.8 7.1 7.3 7.5
5.7 5.1 5.7 4.5 4.4 4.2 4.2 4.1 3.9 4.8 4.4 4.1 3.6 3.7 3.8 3.8 3.4 3.5 3.7 3.1 2.9 2.6 3.7 3.4 3.7 4.2 3.9 4.2 4.5 4.4 4.3 3.4 3.2 3.4 4.4 5.5 6.7 7.5 7.3 7.1 7.3 7.7 7.5
5.7 5.1 5.0 3.8 3.4 4.6 4.2 4.2 3.9 4.2 3.8 4.8 4.0 4.3 3.8 4.0 3.9 3.7 3.1 3.2 3.7 3.0 2.7 2.0 4.0 3.9 3.4 3.6 4.1 4.7 5.3 4.6 4.1 3.5 3.7 4.5 6.1 7.1 7.6 7.5 7.9 8.0 8.3
5.5 5.9 5.0 5.2 3.9 4.6 4.6 4.3 4.5 5.0 4.7 4.3 4.3 3.6 4.5 4.5 4.0 3.8 4.2 3.3 3.2 2.5 2.2 3.4 1.0 2.1 2.3 2.6 3.2 3.5 3.0 4.2 3.8 4.2 4.4 4.6 4.8 5.6 6.1 6.6 6.7 7.0 7.1
6.0 5.1 5.7 5.3 5.2 5.4 5.2 5.3 5.2 4.7 4.4 4.2 3.3 3.5 3.8 4.5 4.1 4.5 4.2 4.1 4.9 4.9 3.4 2.0 2.0 0.8 2.2 2.3 2.5 2.8 2.7 3.2 4.6 4.4 4.1 3.7 3.5 3.7 4.3 4.4 5.0 5.4 5.3
5.8 6.6 5.4 5.1 5.5 5.4 5.2 5.3 5.6 5.2 4.3 4.4 4.6 4.0 4.2 4.5 4.2 4.1 5.1 4.4 3.5 5.0 5.6 3.2 2.7 1.5 1.5 1.6 2.0 2.2 2.3 2.8 2.4 3.6 3.5 2.9 2.5 2.8 3.3 3.4 3.7 3.4 4.6
5.7 5.6 5.4 5.0 5.0 4.8 5.3 5.8 5.9 5.6 4.9 5.3 5.1 4.8 4.5 4.7 4.5 4.3 3.4 4.3 4.4 4.4 5.2 6.0 2.8 1.4 1.1 1.4 0.7 0.9 1.0 0.7 1.1 0.5 1.0 1.9 2.5 3.1 2.4 2.8 3.4 3.9 4.0
5.6 5.4 5.7 5.6 5.8 5.5 5.4 5.6 5.9 6.1 5.2 4.8 4.8 4.8 4.4 4.7 3.9 4.1 3.9 4.4 4.7 4.9 5.0 5.6 5.1 0.7 1.2 0.2 0.8 0.2 0.3 0.8 1.1 1.4 1.1 1.2 1.9 2.2 3.0 3.1 3.3 3.7 3.5
5.6 5.7 5.8 5.9 5.9 5.7 5.8 5.8 5.6 5.7 5.5 5.4 5.6 4.9 4.7 4.5 4.4 4.4 4.5 4.9 4.9 4.7 5.1 5.0 5.6 1.7 1.2 -1.3 -0.4 -0.3 -0.1 0.7 1.9 2.0 1.8 1.5 2.5 2.6 3.1 3.8 3.6 3.6 4.1
6.3 5.8 6.0 5.6 5.6 5.9 5.8 5.8 5.8 5.5 5.7 6.0 5.8 5.3 4.9 5.1 4.8 4.9 4.8 4.5 4.9 5.0 4.7 4.6 5.2 2.3 0.5 -0.7 0.4 1.3 0.5 1.2 1.5 3.1 3.3 3.2 2.2 2.9 3.5 3.4 4.1 5.0 5.2
6.4 6.8 6.5 6.3 6.1 5.8 6.2 5.6 5.5 5.7 5.9 6.2 5.9 5.7 5.4 5.1 3.5 4.6 5.7 5.3 5.0 5.1 5.4 5.7 5.1 1.2 0.5 -1.0 -0.2 0.5 1.5 0.8 0.8 1.1 2.6 3.1 3.5 3.3 3.1 3.5 3.6 5.1 5.5
4.9 6.7 6.4 7.1 7.1 7.2 4.1 1.4 4.6 6.3 6.6 6.2 5.6 5.5 5.7 2.6 2.5 1.1 0.8 1.7 4.7 5.1 5.2 5.2 4.7 4.5 2.5 1.5 0.1 0.2 0.3 0.4 2.3 2.3 3.0 3.2 3.8 3.2 5.3 6.1 6.5 7.3 7.7
4.8 5.1 6.0 6.8 6.9 7.2 2.5 1.1 0.9 6.7 6.7 5.9 5.9 5.9 5.6 5.0 2.2 4.1 -3.3 -3.2 -3.1 -2.9 -3.4 3.7 5.1 3.3 -0.5 -1.5 -0.8 0.4 0.6 0.9 1.1 1.7 2.3 3.4 4.5 5.5 6.8 7.9 8.7 8.6 7.0
5.7 5.6 5.6 5.9 6.8 7.1 2.1 0.9 -0.2 4.0 6.3 6.5 5.8 5.4 5.4 4.4 1.9 -0.5 -3.1 -4.7 -5.5 -5.5 -5.1 -4.2 -4.5 -4.4 -3.5 -1.7 -0.2 0.6 0.5 1.3 1.9 2.5 3.0 3.3 5.4 6.1 5.7 7.0 7.3 6.7 6.0
5.8 6.0 5.8 6.3 6.4 6.4 -0.1 -0.1 -0.5 3.7 4.6 -2.3 -3.9 -3.2 -1.6 -1.7 -3.2 -2.7 -4.0 -5.4 -6.1 -6.3 -5.6 -4.7 -4.1 -3.2 -1.8 -0.6 0.0 1.1 1.5 2.4 2.7 3.2 2.8 3.3 3.8 3.7 4.3 5.2 5.8 4.8 5.0
4.7 5.2 0.6 -2.7 -3.8 -1.4 -4.0 -1.8 -1.1 0.2 -4.0 -5.2 -5.5 -5.3 -4.8 -4.3 -4.3 -4.2 -4.9 -5.5 -5.0 -2.8 -0.3 -0.4 -0.6 -0.0 0.0 0.3 0.8 1.0 1.5 2.6 3.0 3.6 4.5 4.2 4.7 4.9 3.5 3.5 3.5 3.9 3.5
Wind_Speed
10 15 14 14 13 13 13 11 10 9 9 8 8 18 18 17 21 19 20 23 20 18 17 16 15 15 14 14 14 13 13 12 11 10 11 11 10 10 10 9 10 10 9
12 12 12 12 11 15 14 13 9 6 7 8 5 16 18 19 20 20 20 21 21 20 16 16 15 15 14 13 12 12 12 11 10 9 9 9 8 8 8 7 7 7 7
16 15 10 8 13 15 17 13 11 12 5 8 4 13 17 17 18 19 20 21 21 20 19 17 16 15 14 13 12 11 11 10 9 9 9 8 8 7 7 7 6 5 4
17 15 8 10 16 15 15 9 6 7 5 5 3 4 11 16 17 19 19 19 20 18 20 21 19 18 17 16 15 14 13 12 11 11 11 11 10 9 8 7 7 6 5
17 15 9 12 17 13 7 7 5 7 5 4 4 3 4 7 15 15 16 17 20 20 20 23 24 23 21 19 19 16 16 14 15 15 14 14 14 12 11 10 8 8 8
11 13 12 11 13 7 6 7 8 3 6 7 7 4 3 5 13 13 15 17 18 18 20 21 22 23 26 24 22 20 20 19 18 18 18 17 16 15 15 14 13 12 11
13 11 8 6 6 8 9 11 5 6 3 5 4 3 0 4 6 5 15 15 16 20 20 20 20 19 22 29 25 24 23 22 22 22 22 21 20 20 19 17 15 15 15
14 9 8 7 3 7 4 6 6 3 2 5 4 3 2 2 3 5 3 6 12 19 20 22 22 23 21 22 25 29 29 27 27 26 26 26 24 23 23 21 20 20 19
13 12 13 11 6 7 9 5 6 7 3 2 5 5 3 4 1 2 6 4 6 5 15 22 22 23 24 22 26 30 34 33 31 30 31 30 29 29 27 26 25 25 24
9 13 15 13 9 5 5 5 5 4 4 5 1 3 2 4 3 1 1 4 6 7 7 11 18 22 24 24 28 31 37 43 39 35 34 33 34 33 31 29 28 28 28
8 10 10 7 6 4 5 7 7 9 4 4 3 3 2 1 2 2 3 3 2 4 6 11 16 19 24 26 25 29 39 42 45 40 37 35 34 34 34 33 32 32 32
7 8 9 7 6 6 6 5 7 9 8 5 4 4 4 4 4 3 2 4 5 4 8 7 11 16 19 22 25 27 35 43 43 40 39 39 36 35 34 34 33 33 32
5 6 6 5 4 7 6 6 8 7 7 8 7 5 4 4 3 3 4 4 4 5 4 5 10 16 18 23 24 25 28 40 43 40 39 37 34 34 32 29 28 27 26
7 9 9 10 7 7 8 7 6 8 10 10 9 6 6 6 4 4 4 4 2 4 4 7 4 13 18 21 25 25 19 18 18 16 18 24 26 26 25 21 18 18 20
9 7 11 11 11 10 8 9 7 8 7 8 9 9 7 6 4 7 6 6 7 6 6 5 5 9 17 17 21 19 17 18 25 24 22 22 25 23 22 21 20 19 19
14 13 11 13 13 12 10 9 10 9 9 8 8 9 10 8 7 8 9 8 7 10 11 6 8 7 12 13 18 19 20 21 26 28 26 26 25 25 24 23 22 21 16
16 17 13 13 13 14 15 15 14 14 14 14 13 13 15 14 10 9 8 9 10 9 13 10 5 6 5 7 6 15 15 16 17 26 26 26 28 29 25 22 21 18 16
17 18 18 15 16 16 16 18 18 16 15 16 16 15 16 11 13 13 10 14 12 12 11 18 11 5 8 6 5 7 10 14 15 19 27 29 29 28 26 24 19 18 15
18 18 18 21 21 20 19 17 17 17 17 18 17 16 18 15 15 13 13 12 11 10 11 12 13 2 4 2 4 4 6 9 15 18 22 27 25 25 24 24 20 17 17
18 19 20 20 20 20 21 21 21 19 19 19 18 18 18 18 18 17 14 14 13 11 11 11 12 5 4 3 6 5 6 8 8 12 14 11 16 20 24 23 20 19 19
18 18 19 20 20 20 17 21 21 21 21 21 20 19 18 19 20 19 12 15 13 12 12 12 12 4 5 4 8 6 10 6 6 3 1 3 4 8 13 19 20 21 17
21 19 22 20 20 17 22 21 21 19 21 20 19 18 16 15 17 19 19 20 17 16 17 12 12 12 14 10 5 6 4 3 2 1 3 1 4 3 5 9 12 12 11
20 22 22 20 23 21 18 18 23 20 16 16 16 14 13 12 13 12 8 11 9 9 7 12 17 9 3 4 6 4 2 2 3 2 3 1 1 1 1 1 5 9 7
20 20 21 22 20 18 19 20 19 16 17 18 16 16 16 13 9 10 9 9 10 11 8 7 10 8 9 9 8 4 6 5 5 4 4 2 3 3 4 6 9 7 4
17 18 17 18 20 20 13 19 15 14 13 3 4 4 2 5 10 17 12 13 12 11 20 29 29 29 28 25 16 8 7 5 3 3 4 2 1 2 1 2 6 7 11
18 13 4 5 7 4 5 5 12 5 7 6 6 7 10 11 14 15 14 13 13 8 9 10 10 14 18 19 18 10 5 5 2 1 4 3 3 3 3 2 2 8 11
Wind_Direction
140 137 145 144 135 146 151 157 160 169 173 196 214 129 138 134 138 139 144 148 150 152 152 151 151 148 144 147 147 147 142 143 135 139 135 136 128 123 121 114 108 106 100
145 143 148 143 148 163 162 163 170 177 179 192 205 127 140 141 143 147 147 153 157 158 161 159 163 162 162 160 158 159 155 156 155 156 155 149 141 134 127 125 121 115 115
146 149 156 153 159 173 165 173 184 183 153 181 156 135 143 142 148 149 151 158 167 168 168 173 175 177 176 173 177 177 177 175 173 179 173 174 167 161 155 154 151 145 144
155 158 164 161 163 180 172 179 180 160 156 158 147 136 143 148 155 161 161 167 173 176 182 183 186 189 191 190 191 193 192 193 194 201 193 192 192 186 185 183 182 185 186
172 167 169 169 170 181 173 175 175 148 155 149 153 150 138 147 157 163 172 177 181 182 187 195 196 196 197 199 203 201 206 202 208 209 208 206 206 202 204 205 204 211 213
184 171 172 170 174 178 171 163 161 149 158 159 162 158 182 150 165 170 178 184 187 190 193 198 203 206 204 205 207 209 210 209 213 217 217 216 216 214 214 215 214 216 222
172 152 158 158 158 167 173 170 147 148 148 154 113 64 30 192 188 188 173 185 189 196 196 203 202 205 210 212 211 216 218 217 218 218 221 221 221 222 221 220 223 229 231
158 149 136 138 147 140 167 158 127 121 147 154 144 128 163 321 262 223 208 181 192 197 199 204 203 205 207 211 215 219 222 221 222 221 222 221 222 225 226 225 224 229 232
154 152 135 144 188 152 175 164 140 140 136 237 156 150 127 207 161 216 225 213 200 189 192 205 204 204 206 208 214 220 223 225 224 225 221 219 219 221 223 226 227 229 232
163 145 156 167 175 183 148 156 148 126 147 202 172 221 144 148 170 201 293 220 203 211 211 198 200 206 206 211 215 217 220 222 223 225 227 224 217 218 220 225 228 233 235
175 170 157 173 168 157 165 167 165 185 177 163 185 178 172 164 162 134 231 255 203 220 215 205 203 204 212 216 218 222 223 221 223 225 226 230 226 222 221 223 227 230 236
189 184 169 169 178 179 179 188 181 194 184 189 187 181 178 174 196 162 176 214 201 226 215 211 217 220 221 218 221 222 225 224 223 224 226 228 229 229 226 227 232 236 241
179 186 185 176 175 200 201 189 194 198 190 211 199 201 204 202 162 173 157 217 204 235 235 226 225 227 227 226 230 234 234 232 225 224 225 228 230 233 232 232 232 237 245
193 198 191 198 187 193 203 189 186 197 205 212 214 206 206 212 192 180 199 176 262 238 233 238 219 224 229 227 233 245 246 246 250 257 254 248 246 242 237 235 234 244 252
198 177 197 207 212 210 205 202 203 198 192 203 212 219 217 228 229 215 217 208 225 244 235 245 234 222 229 228 235 236 233 225 240 228 227 230 230 229 227 235 231 235 235
209 209 192 195 205 214 211 212 216 211 203 217 220 216 219 223 212 215 225 224 215 231 253 213 226 220 214 221 224 221 234 232 225 225 224 228 231 228 224 218 222 222 226
212 215 210 207 204 206 212 216 217 216 217 224 224 218 225 223 223 224 216 224 231 229 247 253 219 217 221 220 222 221 227 225 233 227 220 222 233 230 218 223 221 228 231
215 215 218 216 219 219 217 219 219 216 215 219 221 221 226 219 220 218 217 225 229 232 237 250 236 196 206 217 216 212 225 232 233 236 229 225 220 217 226 222 220 224 229
216 216 215 221 221 221 221 222 222 221 222 223 223 218 225 218 225 225 224 230 229 230 234 245 251 196 202 154 207 222 214 227 234 236 233 218 216 226 227 224 218 221 232
216 220 220 221 222 222 224 226 224 224 224 227 226 224 224 222 225 228 228 227 229 228 228 235 245 215 206 198 210 213 219 215 219 220 215 213 207 218 223 213 217 229 235
222 222 221 222 221 222 225 220 223 226 229 232 231 230 229 227 225 226 226 232 232 231 235 240 239 197 195 182 204 209 223 198 193 161 171 185 195 202 208 221 220 224 235
225 222 227 226 224 226 225 215 216 224 227 227 229 228 229 225 229 227 224 228 229 224 233 234 234 232 228 217 199 190 169 146 182 183 151 241 207 194 217 222 226 225 243
214 221 226 226 230 231 224 214 215 227 225 226 229 230 229 230 221 226 110 99 57 25 17 251 240 242 147 156 140 137 138 130 129 97 65 237 72 90 101 297 271 255 235
215 218 221 225 228 232 225 220 216 222 231 234 230 228 230 225 198 161 136 97 68 45 28 56 69 68 71 63 66 70 92 63 42 65 86 82 329 319 358 323 295 296 301
217 218 220 224 225 232 215 212 196 217 229 86 54 35 104 127 134 135 124 115 101 85 75 81 83 78 65 58 62 72 62 61 85 360 20 86 4 317 260 241 282 38 5
216 217 150 61 43 125 34 232 212 161 127 114 83 69 76 109 109 121 123 125 108 110 100 82 83 77 74 79 68 69 84 70 50 52 14 20 16 10 330 353 10 12 7